CW7443 Weather Reports


Display with metric or nautical units.
time (UTC)temp
F
wind
direction
speed
MPH
gust
MPH
rain 1hr
in
rain 24hr
in
rain mn
in
humidity
%
barometer
mb
20200928174834 77 259 3.0 9.0 0.00 0.00 0.00 60 1006.9
20200928174328 77 211 1.0 5.0 0.00 0.00 0.00 64 1007.3
20200928173843 77 226 1.0 5.0 0.00 0.00 0.00 65 1007.3
20200928173332 76 214 1.0 5.0 0.00 0.00 0.00 65 1007.3
20200928172826 76 213 0.0 5.0 0.00 0.00 0.00 64 1007.6
20200928172338 76 203 1.0 4.0 0.00 0.00 0.00 66 1007.6
20200928171829 75 237 1.0 5.0 0.00 0.00 0.00 68 1007.6
20200928171328 75 305 2.0 9.0 0.00 0.00 0.00 68 1007.7
20200928170824 75 206 3.0 9.0 0.00 0.00 0.00 67 1007.7
20200928170335 75 196 3.0 9.0 0.00 0.00 0.00 69 1007.7
20200928165831 74 175 3.0 9.0 0.00 0.00 0.00 70 1008.0
20200928165324 73 221 2.0 9.0 0.00 0.00 0.00 73 1008.0
20200928164835 72 112 2.0 4.0 0.00 0.00 0.00 73 1008.0
20200928164332 72 183 1.0 7.0 0.00 0.00 0.00 75 1008.2
20200928163834 72 198 2.0 7.0 0.00 0.00 0.00 74 1008.2
20200928163340 72 145 1.0 6.0 0.00 0.00 0.00 74 1008.2
20200928162832 72 229 3.0 6.0 0.00 0.00 0.00 74 1008.3
20200928162351 72 200 1.0 6.0 0.00 0.00 0.00 73 1008.3
20200928161841 72 213 2.0 12.0 0.00 0.00 0.00 74 1008.3
20200928161335 72 248 3.0 12.0 0.00 0.00 0.00 74 1008.3
20200928160839 72 243 1.0 8.0 0.00 0.00 0.00 74 1008.3
20200928160341 72 214 1.0 8.0 0.00 0.00 0.00 74 1008.3
20200928155835 72 206 2.0 8.0 0.00 0.00 0.00 74 1008.1
20200928155328 72 212 1.0 8.0 0.00 0.00 0.00 75 1008.1
20200928154841 72 244 1.0 5.0 0.00 0.00 0.00 74 1008.1
20200928154333 72 138 2.0 6.0 0.00 0.00 0.00 74 1008.3
20200928153827 72 227 0.0 6.0 0.00 0.00 0.00 74 1008.3
20200928153338 72 173 2.0 8.0 0.00 0.00 0.00 73 1008.3
20200928152835 72 185 1.0 8.0 0.00 0.00 0.00 73 1008.3
20200928152328 72 245 0.0 6.0 0.00 0.00 0.00 75 1008.3
20200928151841 72 260 1.0 6.0 0.00 0.00 0.00 73 1008.3
20200928151336 72 187 0.0 6.0 0.00 0.00 0.00 76 1008.4
20200928150828 72 187 2.0 6.0 0.00 0.00 0.00 76 1008.4
20200928150341 71 209 2.0 6.0 0.00 0.00 0.00 77 1008.4
20200928145833 70 181 1.0 7.0 0.00 0.00 0.00 79 1008.5
20200928145325 70 153 3.0 7.0 0.00 0.00 0.00 78 1008.5
20200928144837 70 236 1.0 7.0 0.00 0.00 0.00 81 1008.5
20200928144338 69 222 1.0 3.0 0.00 0.00 0.00 81 1008.7
20200928143836 69 220 1.0 6.0 0.00 0.00 0.00 83 1008.7
20200928143341 68 178 1.0 6.0 0.00 0.00 0.00 84 1008.7
20200928142841 68 196 1.0 5.0 0.00 0.00 0.00 86 1009.0
20200928142330 67 215 2.0 7.0 0.00 0.00 0.00 86 1009.0
20200928141841 67 254 0.0 7.0 0.00 0.00 0.00 86 1009.0
20200928141338 67 197 0.0 5.0 0.00 0.00 0.00 87 1008.9
20200928140832 66 197 1.0 5.0 0.00 0.00 0.00 88 1008.9
20200928140339 66 213 1.0 5.0 0.00 0.00 0.00 88 1008.9
20200928135834 65 190 1.0 6.0 0.00 0.00 0.00 89 1009.0
20200928135328 65 187 1.0 6.0 0.00 0.00 0.00 90 1009.0
20200928134844 65 234 0.0 3.0 0.00 0.00 0.00 91 1009.0
20200928134337 65 234 1.0 7.0 0.00 0.00 0.00 91 1008.9
20200928133831 64 173 1.0 7.0 0.00 0.00 0.00 92 1008.9
20200928133340 64 213 1.0 5.0 0.00 0.00 0.00 92 1008.9
20200928132837 64 219 1.0 4.0 0.00 0.00 0.00 92 1009.0
20200928132329 63 229 0.0 3.0 0.00 0.00 0.00 93 1009.0
20200928131841 63 235 0.0 4.0 0.00 0.00 0.00 93 1009.0
20200928131354 63 235 1.0 6.0 0.00 0.00 0.00 94 1009.2
20200928130839 63 217 1.0 6.0 0.00 0.00 0.00 95 1009.2
20200928130330 62 189 0.0 2.0 0.00 0.00 0.00 95 1009.2
20200928125838 62 231 0.0 2.0 0.00 0.00 0.00 95 1009.4
20200928125331 62 196 0.0 1.0 0.00 0.00 0.00 96 1009.4
20200928124828 62 196 0.0 3.0 0.00 0.00 0.00 96 1009.4
20200928124340 62 196 0.0 3.0 0.00 0.00 0.00 95 1009.3
20200928123832 61 83 0.0 0.0 0.00 0.00 0.00 95 1009.3
20200928123326 61 83 0.0 0.0 0.00 0.00 0.00 95 1009.3
20200928122840 61 83 0.0 0.0 0.00 0.00 0.00 95 1009.0
20200928122337 61 83 0.0 0.0 0.00 0.00 0.00 95 1009.0
20200928121829 61 83 0.0 1.0 0.00 0.00 0.00 95 1009.0
20200928121325 61 83 0.0 1.0 0.00 0.00 0.00 95 1008.9
20200928120836 61 83 0.0 1.0 0.00 0.00 0.00 96 1008.9
20200928120326 61 93 0.0 0.0 0.00 0.00 0.00 96 1008.9
20200928115822 61 93 0.0 0.0 0.00 0.00 0.00 96 1008.8
20200928115342 61 93 0.0 1.0 0.00 0.00 0.00 96 1008.8
20200928114832 61 93 0.0 1.0 0.00 0.00 0.00 96 1008.8
20200928114326 61 97 0.0 0.0 0.00 0.00 0.00 96 1008.8
20200928113836 61 97 0.0 0.0 0.00 0.00 0.00 96 1008.8
20200928113332 61 97 0.0 0.0 0.00 0.00 0.00 96 1008.8
20200928112831 61 98 0.0 0.0 0.00 0.00 0.00 96 1008.8
20200928112340 61 97 0.0 0.0 0.00 0.00 0.00 96 1008.8
20200928111833 61 98 0.0 1.0 0.00 0.00 0.00 96 1008.8
20200928111322 61 105 0.0 1.0 0.00 0.00 0.00 96 1008.9
20200928110833 61 105 0.0 1.0 0.00 0.00 0.00 96 1008.9
20200928110325 61 104 0.0 0.0 0.00 0.00 0.00 96 1008.9
20200928105840 61 104 0.0 0.0 0.00 0.00 0.00 95 1008.8
20200928105332 61 104 0.0 0.0 0.00 0.00 0.00 95 1008.8
20200928104824 60 104 0.0 0.0 0.00 0.00 0.00 95 1008.8
20200928104323 60 104 0.0 0.0 0.00 0.00 0.00 95 1008.7
20200928103833 60 104 0.0 0.0 0.00 0.00 0.00 95 1008.7
20200928103325 61 104 0.0 0.0 0.00 0.00 0.00 95 1008.7
20200928102824 61 104 0.0 0.0 0.00 0.00 0.00 95 1008.7
20200928102335 61 104 0.0 0.0 0.00 0.00 0.00 95 1008.7
20200928101828 61 104 0.0 0.0 0.00 0.00 0.00 95 1008.7
20200928101324 61 104 0.0 0.0 0.00 0.00 0.00 95 1008.7
20200928100839 61 207 0.0 0.0 0.00 0.00 0.00 95 1008.7
20200928100329 61 207 0.0 0.0 0.00 0.00 0.00 95 1008.7
20200928095822 61 207 0.0 0.0 0.00 0.00 0.00 95 1008.4
20200928095338 61 207 0.0 0.0 0.00 0.00 0.00 95 1008.4
20200928094831 62 207 0.0 0.0 0.00 0.00 0.00 95 1008.4
20200928094326 62 207 0.0 0.0 0.00 0.00 0.00 95 1008.4
20200928093839 62 207 0.0 0.0 0.00 0.00 0.00 95 1008.4
20200928093332 61 207 0.0 1.0 0.00 0.00 0.00 96 1008.4
20200928092828 61 207 0.0 5.0 0.00 0.00 0.00 96 1008.4
20200928092325 61 207 0.0 5.0 0.00 0.00 0.00 95 1008.4
20200928091834 61 198 0.0 0.0 0.00 0.00 0.00 95 1008.4
20200928091326 61 198 0.0 1.0 0.00 0.00 0.00 95 1008.4
20200928090833 61 198 0.0 1.0 0.00 0.00 0.00 95 1008.4
20200928090333 61 198 0.0 1.0 0.00 0.00 0.00 95 1008.4
20200928085830 61 198 0.0 1.0 0.00 0.00 0.00 95 1008.3
20200928085323 61 198 0.0 0.0 0.00 0.00 0.00 95 1008.3
20200928084834 61 198 0.0 0.0 0.00 0.00 0.00 95 1008.3
20200928084330 61 198 0.0 1.0 0.00 0.00 0.00 95 1008.3
20200928083823 61 198 0.0 1.0 0.00 0.00 0.00 95 1008.3
20200928083335 61 198 0.0 0.0 0.00 0.00 0.00 95 1008.3
20200928082831 60 198 0.0 0.0 0.00 0.00 0.00 95 1008.4
20200928082322 60 198 0.0 0.0 0.00 0.00 0.00 95 1008.4
20200928081841 60 198 0.0 0.0 0.00 0.00 0.00 94 1008.4
20200928081337 61 198 0.0 0.0 0.00 0.00 0.00 94 1008.5
20200928080833 61 198 0.0 0.0 0.00 0.00 0.00 94 1008.5
20200928080322 61 198 0.0 0.0 0.00 0.00 0.00 94 1008.5
20200928075836 61 198 0.0 0.0 0.00 0.00 0.00 94 1008.8
20200928075329 61 198 0.0 0.0 0.00 0.00 0.00 94 1008.8
20200928074820 61 198 0.0 0.0 0.00 0.00 0.00 94 1008.8
20200928074335 61 198 0.0 0.0 0.00 0.00 0.00 94 1008.8
20200928073837 61 198 0.0 0.0 0.00 0.00 0.00 94 1008.8
20200928073328 61 198 0.0 0.0 0.00 0.00 0.00 94 1008.8
20200928072822 61 198 0.0 0.0 0.00 0.00 0.00 94 1008.8
20200928072332 61 198 0.0 0.0 0.00 0.00 0.00 94 1008.8
20200928071824 61 198 0.0 0.0 0.00 0.00 0.00 94 1008.8
20200928071337 61 198 0.0 0.0 0.00 0.00 0.00 94 1009.0
20200928070828 61 198 0.0 0.0 0.00 0.00 0.00 93 1009.0
20200928070321 61 198 0.0 0.0 0.00 0.00 0.00 94 1009.0
20200928065840 61 198 0.0 0.0 0.00 0.00 0.00 94 1009.1
20200928065328 61 198 0.0 0.0 0.00 0.00 0.00 94 1009.1
20200928064820 61 198 0.0 0.0 0.00 0.00 0.00 93 1009.1
20200928064321 61 198 0.0 0.0 0.00 0.00 0.00 94 1009.4
20200928063836 61 198 0.0 0.0 0.00 0.00 0.00 94 1009.4
20200928063322 61 198 0.0 0.0 0.00 0.00 0.00 94 1009.4
20200928062818 61 198 0.0 0.0 0.00 0.00 0.00 94 1009.5
20200928062330 61 198 0.0 0.0 0.00 0.00 0.00 93 1009.5
20200928061824 61 198 0.0 0.0 0.00 0.00 0.00 93 1009.5
20200928061320 60 198 0.0 0.0 0.00 0.00 0.00 93 1009.5
20200928060839 60 198 0.0 0.0 0.00 0.00 0.00 93 1009.5
20200928060322 60 198 0.0 0.0 0.00 0.00 0.00 93 1009.5
20200928055840 61 198 0.0 0.0 0.00 0.00 0.00 92 1009.5
20200928055335 61 198 0.0 0.0 0.00 0.00 0.00 92 1009.5
20200928054826 61 198 0.0 0.0 0.00 0.00 0.00 92 1009.5
20200928054322 61 198 0.0 0.0 0.00 0.00 0.00 92 1009.8
20200928053837 61 198 0.0 0.0 0.00 0.00 0.00 92 1009.8
20200928053327 61 198 0.0 0.0 0.00 0.00 0.00 93 1009.8
20200928052821 60 198 0.0 0.0 0.00 0.00 0.00 92 1009.9
20200928052336 60 198 0.0 0.0 0.00 0.00 0.00 92 1009.9
20200928051826 60 198 0.0 0.0 0.00 0.00 0.00 91 1009.9
20200928051324 60 198 0.0 0.0 0.00 0.00 0.00 91 1009.9
20200928050821 60 198 0.0 0.0 0.00 0.00 0.00 91 1009.9
20200928050331 61 198 0.0 0.0 0.00 0.00 0.00 91 1009.9
20200928045833 61 198 0.0 0.0 0.00 0.00 0.00 91 1010.0
20200928045320 61 198 0.0 0.0 0.00 0.00 0.00 91 1010.0
20200928044833 61 198 0.0 0.0 0.00 0.00 0.00 91 1010.0
20200928044330 61 198 0.0 0.0 0.00 0.00 0.00 91 1010.2
20200928043820 61 198 0.0 0.0 0.00 0.00 0.00 91 1010.2
20200928043336 61 198 0.0 0.0 0.00 0.00 0.00 91 1010.2
20200928042830 61 198 0.0 0.0 0.00 0.00 0.00 91 1010.4
20200928042323 61 198 0.0 0.0 0.00 0.00 0.00 91 1010.4
20200928041819 61 198 0.0 0.0 0.00 0.00 0.00 91 1010.4
20200928041337 61 198 0.0 0.0 0.00 0.00 0.00 92 1010.4
20200928040828 61 198 0.0 0.0 0.00 0.00 0.00 92 1010.4
20200928040336 61 198 0.0 0.0 0.00 0.00 0.00 92 1010.4
20200928035827 61 198 0.0 0.0 0.00 0.00 0.00 92 1010.4
20200928035334 61 198 0.0 0.0 0.00 0.00 0.00 92 1010.4
20200928034827 61 198 0.0 0.0 0.00 0.00 0.00 92 1010.4
20200928034321 61 198 0.0 0.0 0.00 0.00 0.00 92 1010.5
20200928033835 61 198 0.0 0.0 0.00 0.00 0.00 92 1010.5
20200928033327 61 198 0.0 0.0 0.00 0.00 0.00 92 1010.5
20200928032828 61 198 0.0 0.0 0.00 0.00 0.00 93 1010.7
20200928032322 60 198 0.0 0.0 0.00 0.00 0.00 92 1010.7
20200928031831 60 198 0.0 0.0 0.00 0.00 0.00 92 1010.7
20200928031327 60 198 0.0 0.0 0.00 0.00 0.00 92 1010.8
20200928030826 60 198 0.0 0.0 0.00 0.00 0.00 92 1010.8
20200928030330 60 198 0.0 0.0 0.00 0.00 0.00 92 1010.8
20200928025827 60 198 0.0 0.0 0.00 0.00 0.00 92 1010.9
20200928025337 60 198 0.0 0.0 0.00 0.00 0.00 92 1010.9
20200928024831 59 198 0.0 0.0 0.00 0.00 0.00 91 1010.9
20200928024325 59 198 0.0 0.0 0.00 0.00 0.00 91 1011.0
20200928023820 59 198 0.0 0.0 0.00 0.00 0.00 90 1011.0
20200928023335 59 198 0.0 0.0 0.00 0.00 0.00 90 1011.0
20200928022829 59 198 0.0 0.0 0.00 0.00 0.00 90 1011.0
20200928022319 59 198 0.0 0.0 0.00 0.00 0.00 90 1011.0
20200928021833 60 198 0.0 0.0 0.00 0.00 0.00 90 1011.0
20200928021324 60 198 0.0 0.0 0.00 0.00 0.00 90 1011.0
20200928020834 60 198 0.0 0.0 0.00 0.00 0.00 90 1011.0
20200928020326 60 198 0.0 0.0 0.00 0.00 0.00 90 1011.0
20200928015834 60 198 0.0 0.0 0.00 0.00 0.00 89 1010.9
20200928015328 60 198 0.0 0.0 0.00 0.00 0.00 89 1010.9
20200928014823 60 198 0.0 0.0 0.00 0.00 0.00 89 1010.9
20200928014318 60 198 0.0 0.0 0.00 0.00 0.00 89 1010.7
20200928013832 61 198 0.0 0.0 0.00 0.00 0.00 88 1010.7
20200928013322 61 198 0.0 0.0 0.00 0.00 0.00 88 1010.7
20200928012818 61 198 0.0 0.0 0.00 0.00 0.00 88 1010.8
20200928012331 61 198 0.0 0.0 0.00 0.00 0.00 88 1010.8
20200928011822 62 198 0.0 0.0 0.00 0.00 0.00 88 1010.8
20200928011318 62 198 0.0 0.0 0.00 0.00 0.00 87 1011.0
20200928010831 62 198 0.0 0.0 0.00 0.00 0.00 87 1011.0
20200928010325 62 198 0.0 0.0 0.00 0.00 0.00 86 1011.0
20200928005822 62 198 0.0 0.0 0.00 0.00 0.00 84 1011.0
20200928005334 62 198 0.0 0.0 0.00 0.00 0.00 84 1011.0
20200928004824 63 198 0.0 0.0 0.00 0.00 0.00 84 1011.0
20200928004321 63 198 0.0 0.0 0.00 0.00 0.00 84 1011.0
20200928003834 63 198 0.0 0.0 0.00 0.00 0.00 83 1011.0
20200928003324 63 198 0.0 0.0 0.00 0.00 0.00 83 1011.0
20200928002822 64 198 0.0 0.0 0.00 0.00 0.00 81 1011.0
20200928002335 64 198 0.0 0.0 0.00 0.00 0.00 81 1011.0
20200928001824 64 198 0.0 0.0 0.00 0.00 0.00 81 1011.0
20200928001325 65 198 0.0 0.0 0.00 0.00 0.00 82 1010.8
20200928000848 65 198 0.0 0.0 0.00 0.00 0.00 80 1010.8
20200928000329 66 198 0.0 0.0 0.00 0.00 0.00 80 1010.8
20200927235820 66 198 0.0 0.0 0.00 0.00 0.00 78 1010.7
20200927235333 67 198 0.0 0.0 0.00 0.00 0.00 77 1010.7
20200927234825 67 198 0.0 0.0 0.00 0.00 0.00 75 1010.7
20200927234323 68 198 0.0 0.0 0.00 0.00 0.00 74 1010.8
20200927233830 68 198 0.0 0.0 0.00 0.00 0.00 73 1010.8
20200927233323 69 198 0.0 0.0 0.00 0.00 0.00 72 1010.8
20200927232824 69 198 0.0 0.0 0.00 0.00 0.00 72 1010.6
20200927232315 70 198 0.0 0.0 0.00 0.00 0.00 68 1010.6
20200927231827 70 198 0.0 0.0 0.00 0.00 0.00 68 1010.6
20200927231325 71 198 0.0 1.0 0.00 0.00 0.00 67 1010.6
20200927230817 71 198 0.0 4.0 0.00 0.00 0.00 66 1010.6
20200927230327 71 198 0.0 4.0 0.00 0.00 0.00 66 1010.6
20200927225824 71 198 1.0 6.0 0.00 0.00 0.00 66 1010.5
20200927225333 72 211 2.0 6.0 0.00 0.00 0.00 65 1010.5
20200927224826 72 216 1.0 6.0 0.00 0.00 0.00 64 1010.5
20200927224319 72 265 1.0 7.0 0.00 0.00 0.00 64 1010.5
20200927223829 72 169 0.0 7.0 0.00 0.00 0.00 64 1010.5
20200927223326 73 204 2.0 7.0 0.00 0.00 0.00 64 1010.5
20200927222821 73 224 1.0 8.0 0.00 0.00 0.00 63 1010.5
20200927222338 73 208 1.0 8.0 0.00 0.00 0.00 61 1010.5
20200927221826 73 155 1.0 9.0 0.00 0.00 0.00 62 1010.5
20200927221321 73 158 4.0 9.0 0.00 0.00 0.00 61 1010.5
20200927220833 73 234 1.0 5.0 0.00 0.00 0.00 62 1010.5
20200927220322 74 230 1.0 5.0 0.00 0.00 0.00 63 1010.5
20200927215816 74 189 0.0 6.0 0.00 0.00 0.00 62 1010.5
20200927215329 74 194 1.0 6.0 0.00 0.00 0.00 61 1010.5
20200927214822 74 169 2.0 6.0 0.00 0.00 0.00 62 1010.5
20200927214315 74 223 1.0 5.0 0.00 0.00 0.00 61 1010.5
20200927213829 74 214 1.0 6.0 0.00 0.00 0.00 61 1010.5
20200927213320 75 140 2.0 7.0 0.00 0.00 0.00 59 1010.5
20200927212814 74 177 1.0 7.0 0.00 0.00 0.00 60 1010.5
20200927212327 74 121 3.0 7.0 0.00 0.00 0.00 59 1010.5
20200927211817 74 122 2.0 7.0 0.00 0.00 0.00 59 1010.5
20200927211333 75 216 1.0 6.0 0.00 0.00 0.00 59 1010.5
20200927210828 75 213 2.0 7.0 0.00 0.00 0.00 58 1010.5
20200927210316 75 188 1.0 10.0 0.00 0.00 0.00 59 1010.5
20200927205831 75 217 3.0 10.0 0.00 0.00 0.00 58 1010.8
20200927205325 76 230 1.0 7.0 0.00 0.00 0.00 56 1010.8
20200927204816 76 199 1.0 7.0 0.00 0.00 0.00 56 1010.8
20200927204328 76 231 2.0 7.0 0.00 0.00 0.00 56 1010.9
20200927203825 76 269 1.0 7.0 0.00 0.00 0.00 57 1010.9
20200927203334 76 242 3.0 6.0 0.00 0.00 0.00 57 1010.9
20200927202828 76 235 1.0 7.0 0.00 0.00 0.00 59 1011.0
20200927202322 76 231 3.0 7.0 0.00 0.00 0.00 58 1011.0
20200927201836 76 255 2.0 8.0 0.00 0.00 0.00 58 1011.0
20200927201329 76 205 1.0 10.0 0.00 0.00 0.00 60 1011.2
20200927200828 76 277 3.0 10.0 0.00 0.00 0.00 58 1011.2
20200927200318 75 207 2.0 8.0 0.00 0.00 0.00 59 1011.2
20200927195816 75 175 3.0 9.0 0.00 0.00 0.00 58 1011.2
20200927195331 75 158 3.0 9.0 0.00 0.00 0.00 58 1011.2
20200927194818 75 227 3.0 8.0 0.00 0.00 0.00 58 1011.2
20200927194316 75 132 1.0 9.0 0.00 0.00 0.00 59 1011.4
20200927193831 75 313 3.0 9.0 0.00 0.00 0.00 58 1011.4
20200927193321 75 203 2.0 9.0 0.00 0.00 0.00 60 1011.4
20200927192817 75 217 4.0 8.0 0.00 0.00 0.00 59 1011.6
20200927192330 74 117 3.0 11.0 0.00 0.00 0.00 61 1011.6
20200927191824 74 245 3.0 11.0 0.00 0.00 0.00 61 1011.6
20200927191323 74 188 1.0 6.0 0.00 0.00 0.00 62 1011.7
20200927190814 73 165 1.0 4.0 0.00 0.00 0.00 61 1011.7
20200927190328 73 82 1.0 6.0 0.00 0.00 0.00 61 1011.7
20200927185824 73 228 2.0 6.0 0.00 0.00 0.00 60 1011.7
20200927185320 73 69 1.0 8.0 0.00 0.00 0.00 60 1011.7
20200927184836 73 157 3.0 8.0 0.00 0.00 0.00 62 1011.7
20200927184327 73 180 2.0 7.0 0.00 0.00 0.00 63 1012.1
20200927183817 73 136 2.0 7.0 0.00 0.00 0.00 65 1012.1
20200927183342 73 205 1.0 10.0 0.00 0.00 0.00 66 1012.1
20200927182829 73 164 2.0 10.0 0.00 0.00 0.00 66 1012.1
20200927182332 73 100 2.0 8.0 0.00 0.00 0.00 66 1012.1
20200927181814 73 223 2.0 6.0 0.00 0.00 0.00 66 1012.1
20200927181333 73 189 0.0 4.0 0.00 0.00 0.00 67 1012.1
20200927180842 74 225 1.0 5.0 0.00 0.00 0.00 64 1012.1
20200927180350 74 182 1.0 11.0 0.00 0.00 0.00 64 1012.1
20200927175829 74 236 0.0 11.0 0.00 0.00 0.00 66 1012.1
20200927175320 74 126 2.0 8.0 0.00 0.00 0.00 64 1012.1